Location: Home
(42.5358°N, 72.7383°W)
Time: 10:04:47
(UTC-05:00)

deb Explorer IX - Pass Details

Date: 03 December 2021
Orbit: 544 x 1082 km, 38.8° (Epoch: 19 January)

Event Time Altitude Azimuth Distance (km) Brightness Sun altitude
Rises 15:51:34 0° 265° (W) 2,696 ? 3.3°
Reaches altitude 10° 15:55:21 10° 229° (SW) 1,824 ? 2.7°
Maximum altitude 15:56:34 11° 211° (SSW) 1,767 ? 2.6°
Drops below altitude 10° 15:57:48 10° 194° (SSW) 1,856 ? 2.4°
Sets 16:01:47 0° 159° (SSE) 2,841 ? 1.7°
